| time (UTC) | temp C | wind direction | speed KPH | gust KPH | rain 1hr cm | rain 24hr cm | rain mn cm | humidity % | barometer mb |
| 20260508104735 | 8 | 261 | 22.5 | 24.1 | 0.00 | 0.00 | 0.00 | 69 | 1026.9 |
| 20260508102735 | 8 | 265 | 24.1 | 25.7 | 0.00 | 0.00 | 0.00 | 72 | 1027.0 |
| 20260508100735 | 8 | 258 | 24.1 | 27.4 | 0.00 | 0.00 | 0.00 | 72 | 1027.0 |
| 20260508094735 | 10 | 240 | 14.5 | 17.7 | 0.00 | 0.00 | 0.00 | 61 | 1027.0 |
| 20260508092735 | 10 | 251 | 12.9 | 14.5 | 0.00 | 0.00 | 0.00 | 59 | 1027.0 |
| 20260508084734 | 9 | 297 | 14.5 | 17.7 | 0.00 | 0.00 | 0.00 | 56 | 1027.0 |
| 20260508082734 | 10 | 297 | 14.5 | 17.7 | 0.00 | 0.00 | 0.00 | 51 | 1027.0 |
| 20260508080735 | 9 | 301 | 12.9 | 16.1 | 0.00 | 0.00 | 0.00 | 47 | 1027.0 |
| 20260508074735 | 10 | 23 | 11.3 | 19.3 | 0.00 | 0.00 | 0.00 | 44 | 1026.9 |
| 20260508072734 | 10 | 29 | 14.5 | 20.9 | 0.00 | 0.00 | 0.00 | 40 | 1026.6 |
| 20260508070735 | 9 | 45 | 12.9 | 17.7 | 0.00 | 0.00 | 0.00 | 43 | 1026.4 |
| 20260508064734 | 8 | 43 | 14.5 | 19.3 | 0.00 | 0.00 | 0.00 | 45 | 1026.3 |
| 20260508062734 | 8 | 40 | 14.5 | 20.9 | 0.00 | 0.00 | 0.00 | 47 | 1026.1 |
| 20260508060735 | 7 | 45 | 14.5 | 17.7 | 0.00 | 0.00 | 0.00 | 53 | 1025.9 |
| 20260508054735 | 7 | 53 | 14.5 | 22.5 | 0.00 | 0.00 | 0.00 | 54 | 1025.7 |
| 20260508052735 | 6 | 37 | 11.3 | 17.7 | 0.00 | 0.00 | 0.00 | 56 | 1025.6 |
| 20260508050734 | 6 | 34 | 9.7 | 14.5 | 0.00 | 0.00 | 0.00 | 58 | 1025.4 |
| 20260508044735 | 5 | 40 | 6.4 | 8.0 | 0.00 | 0.00 | 0.00 | 62 | 1025.3 |
| 20260508042734 | 5 | 22 | 8.0 | 9.7 | 0.00 | 0.00 | 0.00 | 65 | 1025.1 |
| 20260508040734 | 5 | 7 | 9.7 | 16.1 | 0.00 | 0.00 | 0.00 | 69 | 1024.3 |
| 20260508034734 | 5 | 23 | 8.0 | 11.3 | 0.00 | 0.00 | 0.00 | 69 | 1024.7 |
| 20260508032734 | 5 | 7 | 9.7 | 16.1 | 0.00 | 0.00 | 0.00 | 69 | 1024.3 |
| 20260508030735 | 5 | 9 | 14.5 | 19.3 | 0.00 | 0.00 | 0.00 | 66 | 1023.7 |
| 20260508024734 | 5 | 9 | 9.7 | 16.1 | 0.00 | 0.00 | 0.00 | 68 | 1024.1 |
| 20260508022733 | 5 | 9 | 14.5 | 19.3 | 0.00 | 0.00 | 0.00 | 66 | 1023.7 |
| 20260508020734 | 5 | 4 | 17.7 | 22.5 | 0.00 | 0.00 | 0.00 | 69 | 1023.4 |
| 20260508014734 | 5 | 5 | 17.7 | 20.9 | 0.00 | 0.00 | 0.00 | 71 | 1023.3 |
| 20260508010734 | 5 | 359 | 17.7 | 22.5 | 0.00 | 0.00 | 0.00 | 68 | 1022.8 |
| 20260508004734 | 5 | 356 | 20.9 | 24.1 | 0.00 | 0.00 | 0.00 | 68 | 1022.6 |
| 20260508002734 | 5 | 351 | 19.3 | 24.1 | 0.00 | 0.00 | 0.00 | 67 | 1022.3 |
| 20260507234735 | 5 | 358 | 19.3 | 24.1 | 0.00 | 0.00 | 0.00 | 66 | 1021.9 |
| 20260507232733 | 6 | 354 | 19.3 | 24.1 | 0.00 | 0.00 | 0.00 | 61 | 1021.6 |
| 20260507230734 | 6 | 348 | 20.9 | 27.4 | 0.00 | 0.00 | 0.00 | 58 | 1021.3 |
| 20260507224732 | 6 | 352 | 20.9 | 25.7 | 0.00 | 0.00 | 0.00 | 52 | 1021.1 |
| 20260507222734 | 7 | 353 | 22.5 | 29.0 | 0.00 | 0.00 | 0.00 | 52 | 1020.9 |
| 20260507220733 | 7 | 355 | 20.9 | 25.7 | 0.00 | 0.00 | 0.00 | 51 | 1020.8 |
| 20260507214733 | 7 | 349 | 20.9 | 25.7 | 0.00 | 0.00 | 0.00 | 50 | 1020.6 |
| 20260507212732 | 7 | 347 | 24.1 | 30.6 | 0.00 | 0.00 | 0.00 | 46 | 1020.2 |
| 20260507210732 | 7 | 349 | 22.5 | 27.4 | 0.00 | 0.00 | 0.00 | 45 | 1020.0 |
| 20260507204733 | 7 | 352 | 20.9 | 27.4 | 0.00 | 0.00 | 0.00 | 46 | 1019.7 |
| 20260507202732 | 8 | 349 | 20.9 | 25.7 | 0.00 | 0.00 | 0.00 | 44 | 1019.4 |
| 20260507200734 | 8 | 342 | 24.1 | 27.4 | 0.00 | 0.00 | 0.00 | 47 | 1019.2 |
| 20260507194732 | 8 | 328 | 24.1 | 29.0 | 0.00 | 0.00 | 0.00 | 45 | 1018.9 |
| 20260507192732 | 8 | 326 | 24.1 | 29.0 | 0.00 | 0.00 | 0.00 | 44 | 1018.5 |
| 20260507190732 | 8 | 322 | 25.7 | 32.2 | 0.00 | 0.00 | 0.00 | 44 | 1018.2 |
| 20260507184732 | 8 | 320 | 27.4 | 37.0 | 0.00 | 0.00 | 0.00 | 43 | 1018.0 |
| 20260507182731 | 9 | 316 | 30.6 | 35.4 | 0.00 | 0.00 | 0.00 | 41 | 1017.7 |
| 20260507180731 | 9 | 316 | 27.4 | 33.8 | 0.00 | 0.00 | 0.00 | 43 | 1017.6 |
| 20260507174732 | 9 | 310 | 27.4 | 33.8 | 0.00 | 0.00 | 0.00 | 44 | 1017.4 |
| 20260507172731 | 9 | 304 | 27.4 | 37.0 | 0.00 | 0.00 | 0.00 | 43 | 1017.2 |
| 20260507170731 | 10 | 308 | 24.1 | 30.6 | 0.00 | 0.00 | 0.00 | 43 | 1017.2 |
| 20260507164732 | 10 | 303 | 29.0 | 38.6 | 0.00 | 0.00 | 0.00 | 42 | 1017.1 |
| 20260507162732 | 8 | 276 | 29.0 | 33.8 | 0.00 | 0.00 | 0.00 | 61 | 1017.0 |
| 20260507160732 | 9 | 262 | 25.7 | 29.0 | 0.00 | 0.00 | 0.00 | 60 | 1016.8 |
| 20260507154731 | 9 | 258 | 24.1 | 27.4 | 0.00 | 0.00 | 0.00 | 65 | 1016.8 |
| 20260507152731 | 9 | 257 | 24.1 | 25.7 | 0.00 | 0.00 | 0.00 | 68 | 1016.8 |
| 20260507150733 | 9 | 255 | 24.1 | 27.4 | 0.00 | 0.00 | 0.00 | 68 | 1016.9 |
| 20260507140732 | 9 | 262 | 19.3 | 20.9 | 0.00 | 0.00 | 0.00 | 68 | 1016.7 |
| 20260507134733 | 8 | 267 | 19.3 | 20.9 | 0.00 | 0.00 | 0.00 | 73 | 1016.7 |
| 20260507130733 | 9 | 254 | 16.1 | 19.3 | 0.00 | 0.00 | 0.00 | 63 | 1016.6 |
| 20260507124731 | 9 | 242 | 16.1 | 17.7 | 0.00 | 0.00 | 0.00 | 64 | 1016.6 |
| 20260507122730 | 9 | 246 | 14.5 | 17.7 | 0.00 | 0.00 | 0.00 | 68 | 1016.5 |
| 20260507120732 | 8 | 208 | 9.7 | 11.3 | 0.00 | 0.00 | 0.00 | 73 | 1016.5 |
| 20260507114731 | 8 | 214 | 9.7 | 11.3 | 0.00 | 0.00 | 0.00 | 69 | 1016.6 |
| 20260507112730 | 8 | 213 | 8.0 | 9.7 | 0.00 | 0.00 | 0.00 | 67 | 1016.5 |
| 20260507110730 | 8 | 216 | 8.0 | 9.7 | 0.00 | 0.00 | 0.00 | 63 | 1016.5 |